Bel Air, Maryland - USA


Today's Data File


5/6/26
Time         Wind Dir   Wind Spd  Wind Gust     Hum In   Humidity    Temp In       Temp  Raw Barom Wind Chill  Press Alt Cloud Base   Dens Alt Temp Out R  DailyRain   24HrRain   RainRate
                    �        mph        mph          %          %         �F         �F         in         �F         ft         ft         ft      �F/hr         in         in      in/hr
12:00am           191          3         10         40         70       71.1       66.8      29.26       66.8        615       2522       1285      -0.64       0.00       0.00      0.000
12:01am           187          6          6         40         70       71.1       66.7      29.26       66.7        615       2521       1278      -0.72       0.00       0.00      0.000
12:02am           185          3          6         40         70       71.1       66.7      29.26       66.7        616       2521       1279      -0.71       0.00       0.00      0.000
12:03am           193          4          6         40         70       71.2       66.7      29.26       66.7        616       2521       1279      -0.70       0.00       0.00      0.000
12:04am           244          2          9         39         70       71.2       66.7      29.26       66.7        617       2521       1280      -0.69       0.00       0.00      0.000
12:05am           232          4          9         39         71       71.2       66.7      29.26       66.7        616       2422       1279      -0.68       0.00       0.00      0.000
12:06am           211          3          5         40         71       71.2       66.6      29.26       66.6        617       2421       1274      -0.77       0.00       0.00      0.000
12:07am           212          2          5         40         71       71.2       66.6      29.26       66.6        617       2421       1274      -0.76       0.00       0.00      0.000
12:08am           166          3          5         39         71       71.2       66.6      29.26       66.6        617       2421       1274      -0.74       0.00       0.00      0.000
12:09am           211          6          9         40         71       71.2       66.6      29.26       66.6        617       2421       1274      -0.73       0.00       0.00      0.000
12:10am           195          2          9         40         71       71.2       66.6      29.26       66.6        617       2421       1274      -0.72       0.00       0.00      0.000
12:11am           210          2          3         40         71       71.2       66.6      29.26       66.6        617       2421       1274      -0.71       0.00       0.00      0.000
12:12am           192          4          4         40         71       71.2       66.7      29.26       66.7        616       2422       1279      -0.60       0.00       0.00      0.000
12:13am           294          4          7         40         71       71.2       66.6      29.26       66.6        615       2421       1272      -0.69       0.00       0.00      0.000
12:14am           212          3          7         39         71       71.2       66.6      29.26       66.6        615       2421       1272      -0.67       0.00       0.00      0.000
12:15am           211          9         12         40         71       71.2       66.7      29.26       66.7        614       2422       1277      -0.57       0.00       0.00      0.000
12:16am           209          2          9         40         71       71.2       66.7      29.26       66.7        615       2422       1278      -0.56       0.00       0.00      0.000
12:17am           209          2          9         40         71       71.2       66.7      29.26       66.7        615       2422       1278      -0.55       0.00       0.00      0.000
12:18am           171          0          9         40         71       71.2       66.6      29.26       66.6        615       2421       1272      -0.64       0.00       0.00      0.000
12:19am           171          1          9         39         71       71.1       66.7      29.26       66.7        616       2422       1279      -0.53       0.00       0.00      0.000
12:20am           171          2          9         40         71       71.1       66.6      29.26       66.6        616       2421       1273      -0.62       0.00       0.00      0.000
12:21am           212          2          5         39         71       71.1       66.6      29.26       66.6        617       2421       1274      -0.61       0.00       0.00      0.000
12:22am           199          7          7         40         72       71.1       66.6      29.26       66.6        617       2324       1274      -0.60       0.00       0.00      0.000
12:23am           142          2          7         39         72       71.1       66.5      29.26       66.5        617       2324       1267      -0.69       0.00       0.00      0.000
12:24am           213          1          7         40         72       71.1       66.5      29.26       66.5        617       2324       1267      -0.67       0.00       0.00      0.000
12:25am           222          9          9         40         72       71.1       66.4      29.26       66.4        617       2323       1261      -0.76       0.00       0.00      0.000
12:26am           191          6          9         40         72       71.1       66.4      29.26       66.4        617       2323       1261      -0.75       0.00       0.00      0.000
12:27am           184          2          9         40         72       71.1       66.4      29.26       66.4        617       2323       1261      -0.74       0.00       0.00      0.000
12:28am           159          2          9         40         72       71.1       66.5      29.26       66.5        617       2324       1267      -0.63       0.00       0.00      0.000
12:29am           202          3          9         40         72       71.1       66.5      29.26       66.5        617       2324       1267      -0.62       0.00       0.00      0.000
12:30am           260          1          9         40         72       71.1       66.5      29.26       66.5        617       2324       1267      -0.61       0.00       0.00      0.000
12:31am           193          2          2         40         72       71.1       66.5      29.26       66.5        617       2324       1267      -0.60       0.00       0.00      0.000
12:32am           241          2          5         39         72       71.1       66.5      29.26       66.5        617       2324       1267      -0.59       0.00       0.00      0.000
12:33am           265          3          5         40         72       71.1       66.4      29.26       66.4        617       2323       1261      -0.68       0.00       0.00      0.000
12:34am           206          4          5         40         72       71.1       66.4      29.26       66.4        617       2323       1261      -0.66       0.00       0.00      0.000
12:35am           173          2          5         40         72       71.1       66.3      29.26       66.3        617       2322       1255      -0.75       0.00       0.00      0.000
12:36am           222          4          5         40         72       71.1       66.3      29.26       66.3        616       2322       1253      -0.74       0.00       0.00      0.000
12:37am           156          2          5         40         73       71.1       66.2      29.26       66.2        617       2225       1248      -0.83       0.00       0.00      0.000
12:38am           236          3          5         40         73       71.1       66.2      29.26       66.2        616       2225       1247      -0.81       0.00       0.00      0.000
12:39am           193          3          6         40         73       71.1       66.1      29.26       66.1        616       2224       1241      -0.90       0.00       0.00      0.000
12:40am           166          3          6         39         73       71.1       66.1      29.26       66.1        616       2224       1241      -0.88       0.00       0.00      0.000
12:41am           193          2          4         39         73       71.1       66.1      29.26       66.1        615       2224       1239      -0.87       0.00       0.00      0.000
12:42am           191          0          4         39         73       71.1       66.1      29.26       66.1        615       2224       1239      -0.86       0.00       0.00      0.000
12:43am           191          1          4         39         73       71.2       66.2      29.26       66.2        615       2225       1246      -0.74       0.00       0.00      0.000
12:44am           191          3          4         40         73       71.2       66.1      29.26       66.1        614       2224       1238      -0.83       0.00       0.00      0.000
12:45am           191          1          4         40         73       71.2       66.0      29.26       66.0        615       2223       1233      -0.91       0.00       0.00      0.000
12:46am           178          2          4         40         73       71.2       65.9      29.26       65.9        615       2222       1227      -1.00       0.00       0.00      0.000
12:47am           259          6          6         40         73       71.2       65.9      29.26       65.9        615       2222       1227      -0.98       0.00       0.00      0.000
12:48am           192          5          7         40         73       71.2       65.9      29.26       65.9        615       2222       1227      -0.97       0.00       0.00      0.000
12:49am           211          1          7         40         73       71.2       66.0      29.26       66.0        615       2223       1233      -0.85       0.00       0.00      0.000
12:50am           176          3          7         40         73       71.2       65.9      29.26       65.9        615       2222       1227      -0.93       0.00       0.00      0.000
12:51am           176          0          3         40         74       71.2       65.9      29.26       65.9        615       2128       1227      -0.92       0.00       0.00      0.000
12:52am           176          3          4         40         74       71.2       65.9      29.26       65.9        615       2128       1227      -0.90       0.00       0.00      0.000
12:53am           240          1          5         39         74       71.2       65.9      29.26       65.9        616       2128       1228      -0.89       0.00       0.00      0.000
12:54am           239          2          5         40         74       71.2       65.9      29.26       65.9        616       2128       1228      -0.87       0.00       0.00      0.000
12:55am           185          3          5         40         74       71.2       65.8      29.26       65.8        617       2127       1222      -0.96       0.00       0.00      0.000
12:56am           210          2          5         39         74       71.2       65.8      29.26       65.8        617       2127       1222      -0.94       0.00       0.00      0.000
12:57am           177          4          6         40         74       71.2       65.8      29.26       65.8        618       2127       1224      -0.93       0.00       0.00      0.000
12:58am           269          3          6         40         74       71.2       65.8      29.26       65.8        617       2127       1222      -0.91       0.00       0.00      0.000
12:59am           198          3          6         40         74       71.4       65.8      29.26       65.8        618       2127       1224      -0.90       0.00       0.00      0.000
1:00am            196          0          6         40         74       71.4       65.7      29.26       65.7        618       2126       1217      -0.98       0.00       0.00      0.000
1:01am            183          2          4         40         74       71.4       65.7      29.26       65.7        618       2126       1217      -0.97       0.00       0.00      0.000
1:02am            144          4          4         40         74       71.4       65.7      29.26       65.7        618       2126       1217      -0.95       0.00       0.00      0.000
1:03am            183          2          4         40         74       71.4       65.7      29.26       65.7        618       2126       1217      -0.93       0.00       0.00      0.000
1:04am            183          2          4         40         74       71.4       65.7      29.26       65.7        618       2126       1217      -0.92       0.00       0.00      0.000
1:05am            183          2          4         40         75       71.4       65.6      29.26       65.6        618       2032       1211      -1.00       0.00       0.00      0.000
1:06am            183          2          3         40         75       71.4       65.6      29.26       65.6        618       2032       1211      -0.98       0.00       0.00      0.000
1:07am            234          3          4         40         75       71.4       65.5      29.26       65.5        618       2031       1204      -1.07       0.00       0.00      0.000
1:08am            194          2          6         40         75       71.4       65.5      29.26       65.5        618       2031       1204      -1.05       0.00       0.00      0.000
1:09am            170          2          6         40         75       71.4       65.5      29.26       65.5        618       2031       1204      -1.03       0.00       0.00      0.000
1:10am            171          3          6         40         75       71.4       65.5      29.26       65.5        618       2031       1204      -1.01       0.00       0.00      0.000
1:11am            170          1          3         40         75       71.4       65.5      29.26       65.5        618       2031       1204      -1.00       0.00       0.00      0.000
1:12am            202          0          3         40         75       71.4       65.4      29.26       65.4        618       2030       1198      -1.08       0.00       0.00      0.000
1:13am            205          0          3         40         75       71.4       65.4      29.26       65.4        618       2030       1198      -1.06       0.00       0.00      0.000
1:14am            177          4          4         40         75       71.4       65.4      29.26       65.4        618       2030       1198      -1.05       0.00       0.00      0.000
1:15am            170          3          4         40         75       71.4       65.3      29.26       65.3        618       2029       1191      -1.13       0.00       0.00      0.000
1:16am            171          2          3         40         75       71.4       65.3      29.26       65.3        618       2029       1191      -1.11       0.00       0.00      0.000
1:17am            171          2          3         40         75       71.4       65.2      29.26       65.2        618       2028       1185      -1.19       0.00       0.00      0.000
1:18am            170          5          7         40         75       71.4       65.2      29.26       65.2        619       2028       1186      -1.17       0.00       0.00      0.000
1:19am            189          2          7         40         75       71.4       65.2      29.26       65.2        618       2028       1185      -1.15       0.00       0.00      0.000
1:20am            177          0          7         40         75       71.4       65.1      29.26       65.1        618       2028       1178      -1.23       0.00       0.00      0.000
1:21am            235          2          4         40         76       71.6       65.1      29.26       65.1        619       1936       1180      -1.21       0.00       0.00      0.000
1:22am            219          1          4         40         76       71.6       65.1      29.26       65.1        618       1936       1178      -1.19       0.00       0.00      0.000
1:23am            192          3          4         40         76       71.6       65.1      29.26       65.1        618       1936       1178      -1.17       0.00       0.00      0.000
1:24am            191          1          4         40         76       71.6       65.0      29.26       65.0        619       1935       1173      -1.25       0.00       0.00      0.000
1:25am            214          3          4         40         76       71.6       65.0      29.26       65.0        619       1935       1173      -1.23       0.00       0.00      0.000
1:26am            197          2          4         40         76       71.6       65.0      29.26       65.0        619       1935       1173      -1.21       0.00       0.00      0.000
1:27am            229          1          5         40         76       71.6       64.9      29.26       64.9        619       1934       1167      -1.29       0.00       0.00      0.000
1:28am            229          2          5         40         76       71.6       64.9      29.26       64.9        619       1934       1167      -1.27       0.00       0.00      0.000
1:29am            165          2          5         40         76       71.6       64.9      29.26       64.9        619       1934       1167      -1.25       0.00       0.00      0.000
1:30am            165          1          5         40         76       71.6       64.9      29.26       64.9        620       1934       1168      -1.23       0.00       0.00      0.000
1:31am            186          1          3         40         77       71.6       64.9      29.26       64.9        619       1843       1167      -1.21       0.00       0.00      0.000
1:32am            182          1          3         40         77       71.6       64.8      29.26       64.8        619       1843       1160      -1.29       0.00       0.00      0.000
1:33am            182          3          3         40         77       71.6       64.8      29.26       64.8        619       1843       1160      -1.27       0.00       0.00      0.000
1:34am            182          1          3         40         77       71.6       64.8      29.26       64.8        619       1843       1160      -1.25       0.00       0.00      0.000
1:35am            178          2          3         40         77       71.6       64.8      29.26       64.8        619       1843       1160      -1.23       0.00       0.00      0.000
1:36am            226          2          3         40         77       71.6       64.8      29.26       64.8        619       1843       1160      -1.20       0.00       0.00      0.000
1:37am            192          5          5         40         77       71.6       64.8      29.26       64.8        619       1843       1160      -1.18       0.00       0.00      0.000
1:38am            226          3          6         41         77       71.6       64.8      29.26       64.8        619       1843       1160      -1.17       0.00       0.00      0.000
1:39am            213          2          6         40         77       71.8       64.8      29.26       64.8        619       1843       1160      -1.15       0.00       0.00      0.000
1:40am            213          1          6         40         77       71.8       64.9      29.26       64.9        620       1843       1168      -1.03       0.00       0.00      0.000
1:41am            276          4          4         40         77       71.8       64.8      29.26       64.8        620       1843       1161      -1.11       0.00       0.00      0.000
1:42am            258          1          4         40         77       71.8       64.8      29.26       64.8        620       1843       1161      -1.09       0.00       0.00      0.000
1:43am            258          2          4         40         77       71.8       64.8      29.26       64.8        620       1843       1161      -1.07       0.00       0.00      0.000
1:44am            258          0          4         40         77       71.8       64.8      29.26       64.8        620       1843       1161      -1.05       0.00       0.00      0.000
1:45am            252          2          4         40         77       71.8       64.7      29.26       64.7        620       1842       1155      -1.14       0.00       0.00      0.000
1:46am            218          3          4         40         77       71.8       64.7      29.26       64.7        620       1842       1155      -1.12       0.00       0.00      0.000
1:47am            211          3          4         40         77       71.8       64.6      29.26       64.6        620       1841       1148      -1.20       0.00       0.00      0.000
1:48am            207          2          4         40         77       71.8       64.5      29.26       64.5        621       1840       1143      -1.28       0.00       0.00      0.000
1:49am            202          4          4         40         78       71.8       64.5      29.26       64.5        621       1751       1143      -1.26       0.00       0.00      0.000
1:50am            204          3          5         40         78       71.8       64.5      29.26       64.5        621       1751       1143      -1.24       0.00       0.00      0.000
1:51am            204          2          3         40         78       71.8       64.6      29.25       64.6        621       1752       1151      -1.12       0.00       0.00      0.000
1:52am            204          0          3         40         78       71.8       64.5      29.26       64.5        621       1751       1143      -1.20       0.00       0.00      0.000
1:53am            204          1          3         40         78       71.8       64.5      29.26       64.5        621       1751       1143      -1.18       0.00       0.00      0.000
1:54am            187          2          4         40         78       71.8       64.5      29.25       64.5        621       1751       1144      -1.16       0.00       0.00      0.000
1:55am            212          4         11         40         78       71.8       64.5      29.26       64.5        621       1751       1143      -1.14       0.00       0.00      0.000
1:56am            183          4          6         40         78       71.8       64.5      29.25       64.5        621       1751       1144      -1.12       0.00       0.00      0.000
1:57am            234          2          6         41         78       71.8       64.5      29.26       64.5        620       1751       1142      -1.10       0.00       0.00      0.000
1:58am            201          3          6         40         78       71.8       64.5      29.25       64.5        621       1751       1144      -1.08       0.00       0.00      0.000
1:59am            189          3          6         40         78       71.8       64.5      29.25       64.5        622       1751       1145      -1.06       0.00       0.00      0.000
2:00am            179          2          6         40         78       71.9       64.5      29.25       64.5        622       1751       1145      -1.05       0.00       0.00      0.000
2:01am            169          3          3         40         78       71.9       64.5      29.25       64.5        623       1751       1146      -1.03       0.00       0.00      0.000
2:02am            181          4          5         40         78       71.9       64.5      29.25       64.5        624       1751       1148      -1.01       0.00       0.00      0.000
2:03am            204          2          5         40         79       71.9       64.5      29.25       64.5        625       1662       1149      -1.00       0.00       0.00      0.000
2:04am            204          0          5         40         79       71.9       64.5      29.25       64.5        624       1662       1148      -0.98       0.00       0.00      0.000
2:05am            204          0          5         40         79       71.9       64.4      29.25       64.4        624       1662       1141      -1.06       0.00       0.00      0.000
2:06am            204          1          3         40         79       71.9       64.4      29.25       64.4        626       1662       1143      -1.04       0.00       0.00      0.000
2:07am            202          4          4         40         79       71.9       64.3      29.25       64.3        626       1661       1137      -1.13       0.00       0.00      0.000
2:08am            173          1          4         40         79       71.9       64.3      29.25       64.3        627       1661       1138      -1.11       0.00       0.00      0.000
2:09am            226          2          4         40         79       71.9       64.4      29.25       64.4        626       1662       1143      -0.99       0.00       0.00      0.000
2:10am            168          1          5         40         79       71.9       64.3      29.25       64.3        626       1661       1137      -1.07       0.00       0.00      0.000
2:11am            210          0          4         40         79       71.9       64.3      29.25       64.3        627       1661       1138      -1.05       0.00       0.00      0.000
2:12am            212          3          4         40         79       71.9       64.3      29.25       64.3        627       1661       1138      -1.04       0.00       0.00      0.000
2:13am            190          3          5         40         79       71.9       64.2      29.25       64.2        627       1660       1132      -1.12       0.00       0.00      0.000
2:14am            189          1          5         40         79       71.9       64.2      29.25       64.2        626       1660       1130      -1.10       0.00       0.00      0.000
2:15am            204          5          7         40         79       71.9       64.2      29.25       64.2        626       1660       1130      -1.08       0.00       0.00      0.000
2:16am            158          2          5         40         80       71.9       64.2      29.25       64.2        628       1573       1133      -1.06       0.00       0.00      0.000
2:17am            158          2          5         40         79       71.9       64.2      29.25       64.2        628       1660       1133      -1.05       0.00       0.00      0.000
2:18am            166          3          6         40         80       72.1       64.2      29.25       64.2        627       1573       1132      -1.03       0.00       0.00      0.000
2:19am            222          6          6         40         80       72.1       64.1      29.25       64.1        625       1572       1123      -1.11       0.00       0.00      0.000
2:20am            169          0          6         40         80       72.1       64.1      29.25       64.1        627       1572       1125      -1.09       0.00       0.00      0.000
2:21am            169          2          2         40         80       72.1       64.1      29.25       64.1        627       1572       1125      -1.08       0.00       0.00      0.000
2:22am            177          3          3         40         80       72.1       64.1      29.25       64.1        628       1572       1126      -1.06       0.00       0.00      0.000
2:23am            202          7          7         40         80       72.1       64.1      29.25       64.1        629       1572       1127      -1.04       0.00       0.00      0.000
2:24am            192          2          7         40         80       72.1       64.1      29.25       64.1        630       1572       1129      -1.02       0.00       0.00      0.000
2:25am            188          3          7         40         80       72.1       64.1      29.25       64.1        630       1572       1129      -1.01       0.00       0.00      0.000
2:26am            178          4          5         40         80       72.1       64.1      29.25       64.1        629       1572       1127      -0.99       0.00       0.00      0.000
2:27am            174          5          7         40         80       72.1       64.1      29.25       64.1        630       1572       1129      -0.97       0.00       0.00      0.000
2:28am            174          3          7         40         80       72.1       64.2      29.25       64.2        629       1573       1134      -0.86       0.00       0.00      0.000
2:29am            183          1          7         40         80       72.1       64.3      29.25       64.3        629       1573       1140      -0.74       0.00       0.00      0.000
2:30am            164          1          7         40         80       72.1       64.3      29.25       64.3        629       1573       1140      -0.73       0.00       0.00      0.000
2:31am            178          3          6         40         80       72.1       64.3      29.25       64.3        629       1573       1140      -0.72       0.00       0.00      0.000
2:32am            179          2          6         40         80       72.1       64.4      29.25       64.4        629       1574       1147      -0.61       0.00       0.00      0.000
2:33am            203          4          6         40         80       72.1       64.4      29.25       64.4        629       1574       1147      -0.60       0.00       0.00      0.000
2:34am            210          5          6         40         80       72.1       64.4      29.25       64.4        629       1574       1147      -0.59       0.00       0.00      0.000
2:35am            175          3          6         40         80       72.1       64.4      29.24       64.4        631       1574       1149      -0.58       0.00       0.00      0.000
2:36am            246          2          7         40         80       72.3       64.4      29.24       64.4        631       1574       1149      -0.57       0.00       0.00      0.000
2:37am            196          1          7         40         80       72.3       64.4      29.24       64.4        632       1574       1150      -0.56       0.00       0.00      0.000
2:38am            196          2          7         40         80       72.3       64.4      29.24       64.4        632       1574       1150      -0.55       0.00       0.00      0.000
2:39am            196          2          7         40         80       72.3       64.4      29.24       64.4        632       1574       1150      -0.54       0.00       0.00      0.000
2:40am            162          3          8         40         80       72.3       64.4      29.24       64.4        632       1574       1150      -0.53       0.00       0.00      0.000
2:41am            213          3          4         40         80       72.3       64.4      29.24       64.4        632       1574       1150      -0.52       0.00       0.00      0.000
2:42am            188          4          6         40         80       72.3       64.4      29.24       64.4        633       1574       1151      -0.52       0.00       0.00      0.000
2:43am            162          5          6         40         80       72.3       64.4      29.24       64.4        633       1574       1151      -0.51       0.00       0.00      0.000
2:44am            197          2          7         40         80       72.3       64.5      29.24       64.5        633       1575       1158      -0.40       0.00       0.00      0.000
2:45am            161          8          9         40         80       72.3       64.5      29.24       64.4        633       1575       1158      -0.39       0.00       0.00      0.000
2:46am            191          3          8         40         80       72.3       64.5      29.24       64.5        633       1575       1158      -0.38       0.00       0.00      0.000
2:47am            187          3          8         40         80       72.3       64.5      29.24       64.5        633       1575       1158      -0.38       0.00       0.00      0.000
2:48am            247          5          8         40         80       72.3       64.5      29.24       64.5        633       1575       1158      -0.37       0.00       0.00      0.000
2:49am            214          4          8         40         80       72.3       64.5      29.24       64.5        633       1575       1158      -0.37       0.00       0.00      0.000
2:50am            135          1          8         40         80       72.3       64.5      29.24       64.5        633       1575       1158      -0.36       0.00       0.00      0.000
2:51am            175          3          3         40         80       72.3       64.5      29.24       64.5        633       1575       1158      -0.35       0.00       0.00      0.000
2:52am            213          5          8         40         80       72.3       64.5      29.24       64.5        633       1575       1158      -0.35       0.00       0.00      0.000
2:53am            180          6          8         40         80       72.3       64.5      29.24       64.5        633       1575       1158      -0.34       0.00       0.00      0.000
2:54am            173          2          8         40         80       72.3       64.6      29.24       64.6        633       1575       1164      -0.24       0.00       0.00      0.000
2:55am            173          1          8         40         80       72.3       64.6      29.24       64.6        633       1575       1164      -0.23       0.00       0.00      0.000
2:56am            224          7          7         40         80       72.3       64.6      29.24       64.6        633       1575       1164      -0.23       0.00       0.00      0.000
2:57am            160          6          7         40         80       72.4       64.6      29.24       64.6        633       1575       1164      -0.23       0.00       0.00      0.000
2:58am            162          2          9         40         80       72.4       64.6      29.24       64.6        633       1575       1164      -0.22       0.00       0.00      0.000
2:59am            167          6          9         40         80       72.4       64.6      29.24       64.6        634       1575       1165      -0.22       0.00       0.00      0.000
3:00am            287          2          9         40         80       72.4       64.6      29.24       64.6        633       1575       1164      -0.21       0.00       0.00      0.000
3:01am            213          0          8         40         80       72.4       64.6      29.24       64.6        633       1575       1164      -0.21       0.00       0.00      0.000
3:02am            191          2          8         40         80       72.4       64.6      29.24       64.6        633       1575       1164      -0.21       0.00       0.00      0.000
3:03am            210          3          8         40         80       72.4       64.6      29.24       64.6        633       1575       1164      -0.20       0.00       0.00      0.000
3:04am            192          3          8         40         80       72.4       64.6      29.24       64.6        633       1575       1164      -0.20       0.00       0.00      0.000
3:05am            192          2          8         40         80       72.4       64.6      29.24       64.6        634       1575       1167      -0.20       0.00       0.00      0.000
3:06am            193          3          3         40         80       72.4       64.6      29.24       64.6        634       1575       1165      -0.19       0.00       0.00      0.000
3:07am            168          4          5         40         80       72.4       64.6      29.24       64.6        634       1575       1165      -0.19       0.00       0.00      0.000
3:08am            172          1          7         40         80       72.4       64.7      29.24       64.7        634       1576       1172      -0.09       0.00       0.00      0.000
3:09am            189          4          7         40         80       72.4       64.7      29.24       64.7        634       1576       1173      -0.09       0.00       0.00      0.000
3:10am            209          3          7         40         80       72.4       64.8      29.24       64.8        634       1577       1179       0.01       0.00       0.00      0.000
3:11am            226          3          6         40         80       72.4       64.8      29.24       64.8        635       1577       1181       0.01       0.00       0.00      0.000
3:12am            172          2          6         40         80       72.4       64.8      29.24       64.8        635       1577       1181       0.01       0.00       0.00      0.000
3:13am            187          3          6         40         80       72.3       64.8      29.24       64.8        635       1577       1181       0.01       0.00       0.00      0.000
3:14am            256          3          6         40         80       72.3       64.8      29.24       64.8        635       1577       1181       0.01       0.00       0.00      0.000
3:15am            179          9          9         40         80       72.3       64.8      29.24       64.6        634       1577       1179       0.01       0.00       0.00      0.000
3:16am            152          4          9         40         80       72.3       64.8      29.24       64.8        635       1577       1181       0.01       0.00       0.00      0.000
3:17am            193          4          9         40         80       72.3       64.8      29.24       64.8        635       1577       1181       0.01       0.00       0.00      0.000
3:18am            191          7          9         40         80       72.3       64.8      29.24       64.8        635       1577       1181       0.01       0.00       0.00      0.000
3:19am            202          4          9         40         80       72.3       64.8      29.24       64.8        635       1577       1181       0.01       0.00       0.00      0.000
3:20am            206          3          9         40         80       72.3       64.9      29.24       64.9        636       1577       1188       0.11       0.00       0.00      0.000
3:21am            229          2          5         40         80       72.3       64.8      29.24       64.8        636       1577       1182       0.01       0.00       0.00      0.000
3:22am            220          2          6         40         80       72.3       64.9      29.24       64.9        636       1577       1188       0.11       0.00       0.00      0.000
3:23am            152          4          8         40         80       72.3       64.9      29.24       64.9        636       1577       1188       0.11       0.00       0.00      0.000
3:24am            300          2          8         40         80       72.3       64.8      29.24       64.8        637       1577       1183       0.01       0.00       0.00      0.000
3:25am            214          3          8         40         80       72.3       64.9      29.24       64.9        636       1577       1188       0.10       0.00       0.00      0.000
3:26am            187          3          4         40         80       72.3       64.9      29.24       64.9        636       1577       1188       0.10       0.00       0.00      0.000
3:27am            182          5          5         40         81       72.3       64.9      29.24       64.9        636       1491       1188       0.10       0.00       0.00      0.000
3:28am            224          5          5         40         81       72.3       64.9      29.24       64.9        636       1491       1188       0.10       0.00       0.00      0.000
3:29am            236          3          7         40         81       72.3       64.9      29.24       64.9        637       1491       1189       0.10       0.00       0.00      0.000
3:30am            170          4          7         40         80       72.3       64.9      29.24       64.9        638       1577       1190       0.10       0.00       0.00      0.000
3:31am            185          3          9         40         80       72.3       64.9      29.24       64.9        637       1577       1189       0.09       0.00       0.00      0.000
3:32am            172          6          9         40         80       72.3       65.0      29.24       65.0        637       1578       1196       0.19       0.00       0.00      0.000
3:33am            168          3          9         40         80       72.3       64.9      29.24       64.9        639       1577       1192       0.09       0.00       0.00      0.000
3:34am            168          8         11         40         80       72.3       65.0      29.24       65.0        636       1578       1195       0.19       0.00       0.00      0.000
3:35am            168          2         11         40         80       72.3       64.9      29.24       64.9        636       1577       1188       0.08       0.00       0.00      0.000
3:36am            166          5          7         40         80       72.3       65.0      29.23       65.0        641       1578       1200       0.18       0.00       0.00      0.000
3:37am            191         11         11         40         80       72.3       65.0      29.23       64.5        643       1578       1203       0.18       0.00       0.00      0.000
3:38am            152          3         11         40         80       72.3       65.0      29.23       65.0        641       1578       1200       0.18       0.00       0.00      0.000
3:39am            184          2         11         40         80       72.3       65.0      29.23       65.0        641       1578       1200       0.17       0.00       0.00      0.000
3:40am            196          0         11         40         80       72.3       65.0      29.23       65.0        642       1578       1202       0.17       0.00       0.00      0.000
3:41am            196          4          4         40         81       72.3       65.0      29.23       65.0        641       1491       1200       0.17       0.00       0.00      0.000
3:42am            187          3         16         40         81       72.3       64.9      29.23       64.9        641       1491       1194       0.07       0.00       0.00      0.000
3:43am            202          2         16         40         81       72.3       65.0      29.23       65.0        643       1491       1203       0.16       0.00       0.00      0.000
3:44am            197          5         16         40         81       72.3       64.9      29.23       64.9        644       1491       1197       0.06       0.00       0.00      0.000
3:45am            179          4         16         40         81       72.3       65.0      29.23       65.0        642       1491       1202       0.16       0.00       0.00      0.000
3:46am            194          3          6         40         81       72.4       64.9      29.23       64.9        644       1491       1197       0.06       0.00       0.00      0.000
3:47am            226          3          6         40         81       72.4       65.0      29.23       65.0        645       1491       1205       0.16       0.00       0.00      0.000
3:48am            197          3          6         40         81       72.4       65.0      29.23       65.0        643       1491       1203       0.16       0.00       0.00      0.000
3:49am            189          8          9         40         81       72.4       65.0      29.23       65.0        642       1491       1202       0.15       0.00       0.00      0.000
3:50am            191          3          9         40         81       72.4       65.0      29.23       65.0        643       1491       1203       0.15       0.00       0.00      0.000
3:51am            191          3          5         40         81       72.4       65.0      29.23       65.0        645       1491       1205       0.15       0.00       0.00      0.000
3:52am            191          1          5         40         81       72.4       65.0      29.23       65.0        645       1491       1205       0.15       0.00       0.00      0.000
3:53am            168          1          5         40         81       72.4       65.0      29.23       65.0        645       1491       1205       0.14       0.00       0.00      0.000
3:54am            136          4          5         40         81       72.4       65.0      29.23       65.0        643       1491       1203       0.14       0.00       0.00      0.000
3:55am            227          2          7         42         81       72.4       64.9      29.23       64.9        645       1491       1198       0.04       0.00       0.00      0.000
3:56am            168          4          7         40         81       72.4       64.9      29.23       64.9        644       1491       1197       0.04       0.00       0.00      0.000
3:57am            165          2          7         40         81       72.4       65.0      29.23       65.0        646       1491       1207       0.14       0.00       0.00      0.000
3:58am            174          7         11         40         81       72.4       64.9      29.23       64.9        646       1491       1201       0.04       0.00       0.00      0.000
3:59am            183          3         11         40         81       72.4       64.9      29.23       64.9        646       1491       1201       0.04       0.00       0.00      0.000
4:00am            212          3         11         40         81       72.4       64.9      29.23       64.9        646       1491       1201       0.03       0.00       0.00      0.000
4:01am            218          5          6         40         81       72.4       64.9      29.23       64.9        646       1491       1201       0.03       0.00       0.00      0.000
4:02am            191          8          8         40         81       72.4       64.9      29.23       64.9        646       1491       1201       0.03       0.00       0.00      0.000
4:03am            171          4         12         40         81       72.4       64.9      29.23       64.9        646       1491       1201       0.03       0.00       0.00      0.000
4:04am            197          4         12         40         81       72.4       64.9      29.23       64.9        646       1491       1200       0.03       0.00       0.00      0.000
4:05am            213          4         12         40         81       72.4       64.9      29.23       64.9        646       1491       1200       0.03       0.00       0.00      0.000
4:06am            179          3          6         40         81       72.4       64.9      29.23       64.9        646       1491       1201       0.03       0.00       0.00      0.000
4:07am            247          2          6         40         81       72.6       64.9      29.23       64.9        647       1491       1202       0.03       0.00       0.00      0.000
4:08am            195          5          7         40         81       72.6       64.9      29.23       64.9        647       1491       1202       0.03       0.00       0.00      0.000
4:09am            327          3          7         40         81       72.6       64.8      29.23       64.8        647       1490       1195      -0.07       0.00       0.00      0.000
4:10am            197          4          7         40         81       72.6       64.8      29.23       64.8        647       1490       1195      -0.07       0.00       0.00      0.000
4:11am            226          4          7         40         81       72.6       64.8      29.23       64.8        647       1490       1195      -0.07       0.00       0.00      0.000
4:12am            175          3          7         40         81       72.6       64.7      29.23       64.7        647       1489       1189      -0.16       0.00       0.00      0.000
4:13am            197          3          9         40         81       72.6       64.7      29.23       64.7        647       1489       1189      -0.16       0.00       0.00      0.000
4:14am            188          3         10         40         81       72.6       64.7      29.23       64.7        647       1489       1189      -0.16       0.00       0.00      0.000
4:15am            244          6         10         40         82       72.6       64.6      29.23       64.6        647       1403       1183      -0.25       0.00       0.00      0.000
4:16am            213          5          9         40         82       72.6       64.6      29.23       64.6        647       1403       1183      -0.25       0.00       0.00      0.000
4:17am            185          4          9         40         82       72.6       64.5      29.23       64.5        647       1402       1176      -0.35       0.00       0.00      0.000
4:18am            189          4          9         40         82       72.6       64.5      29.23       64.5        647       1402       1176      -0.34       0.00       0.00      0.000
4:19am            121          3         10         40         82       72.6       64.5      29.23       64.5        646       1402       1175      -0.34       0.00       0.00      0.000
4:20am            145          7         10         40         82       72.6       64.5      29.23       64.5        646       1402       1175      -0.33       0.00       0.00      0.000
4:21am            179         11         11         40         82       72.6       64.4      29.23       63.7        646       1402       1168      -0.42       0.00       0.00      0.000
4:22am            176          3         11         40         82       72.6       64.3      29.23       64.3        647       1401       1163      -0.52       0.00       0.00      0.000
4:23am            265          3         11         40         82       72.6       64.3      29.23       64.3        647       1401       1163      -0.51       0.00       0.00      0.000
4:24am            160          3         11         40         83       72.6       64.2      29.23       64.2        647       1316       1157      -0.60       0.00       0.00      0.000
4:25am            183          3         11         40         83       72.6       64.2      29.23       64.2        647       1316       1157      -0.59       0.00       0.00      0.000
4:26am            210          7         10         40         83       72.6       64.2      29.23       64.2        647       1316       1157      -0.58       0.00       0.00      0.000
4:27am            223          3         10         40         83       72.6       64.1      29.23       64.1        647       1315       1150      -0.67       0.00       0.00      0.000
4:28am            195          4         10         40         83       72.6       64.1      29.23       64.1        647       1315       1150      -0.66       0.00       0.00      0.000
4:29am            169          4         10         40         83       72.6       64.1      29.23       64.1        646       1315       1148      -0.65       0.00       0.00      0.000
4:30am            166          5         10         40         83       72.6       64.1      29.23       64.1        646       1315       1148      -0.63       0.00       0.00      0.000
4:31am            165          0          5         40         83       72.6       64.0      29.23       64.0        644       1315       1139      -0.72       0.00       0.00      0.000
4:32am            241          7          7         40         83       72.6       64.0      29.23       64.0        643       1315       1138      -0.71       0.00       0.00      0.000
4:33am            179          1          7         40         83       72.6       63.9      29.23       63.9        643       1314       1132      -0.80       0.00       0.00      0.000
4:34am            205          6          9         40         83       72.6       63.9      29.23       63.9        644       1314       1133      -0.78       0.00       0.00      0.000
4:35am            189          5          9         40         83       72.6       63.9      29.23       63.9        642       1314       1130      -0.77       0.00       0.00      0.000
4:36am            191          2          6         40         84       72.6       63.8      29.23       63.8        642       1230       1124      -0.86       0.00       0.00      0.000
4:37am            191          1          6         40         84       72.6       63.8      29.23       63.8        642       1230       1124      -0.84       0.00       0.00      0.000
4:38am            185          6          8         40         84       72.6       63.8      29.23       63.8        642       1230       1124      -0.83       0.00       0.00      0.000
4:39am            184          5          8         40         84       72.6       63.8      29.23       63.8        642       1230       1124      -0.82       0.00       0.00      0.000
4:40am            213          2          8         40         84       72.8       63.7      29.23       63.7        642       1230       1117      -0.90       0.00       0.00      0.000
4:41am            177          5          5         40         84       72.8       63.7      29.23       63.7        641       1230       1116      -0.89       0.00       0.00      0.000
4:42am            288          5          5         40         84       72.8       63.6      29.23       63.6        641       1229       1110      -0.97       0.00       0.00      0.000
4:43am            150          4         14         40         84       72.8       63.6      29.23       63.6        641       1229       1110      -0.96       0.00       0.00      0.000
4:44am            172          4         14         40         84       72.8       63.6      29.23       63.6        640       1229       1109      -0.94       0.00       0.00      0.000
4:45am            160          6         14         40         84       72.8       63.6      29.24       63.6        639       1229       1108      -0.92       0.00       0.00      0.000
4:46am            224          3          6         40         84       72.8       63.5      29.24       63.5        639       1229       1101      -1.01       0.00       0.00      0.000
4:47am            189          1          6         40         84       72.8       63.5      29.23       63.5        640       1229       1102      -0.99       0.00       0.00      0.000
4:48am            189          1          6         40         84       72.8       63.5      29.23       63.5        641       1229       1103      -0.97       0.00       0.00      0.000
4:49am            107          7          7         40         84       72.8       63.5      29.24       63.5        639       1229       1101      -0.96       0.00       0.00      0.000
4:50am            166          6          9         40         84       72.8       63.5      29.23       63.5        641       1229       1103      -0.94       0.00       0.00      0.000
4:51am            197          6          6         40         84       72.8       63.4      29.23       63.4        641       1228       1097      -1.03       0.00       0.00      0.000
4:52am            176          3          6         40         84       72.8       63.4      29.23       63.4        643       1228       1099      -1.01       0.00       0.00      0.000
4:53am            208          1          6         40         84       72.8       63.4      29.23       63.4        642       1228       1098      -0.99       0.00       0.00      0.000
4:54am            200          1          6         40         84       72.8       63.4      29.23       63.4        642       1228       1098      -0.98       0.00       0.00      0.000
4:55am            199          2          6         40         84       72.8       63.3      29.23       63.3        644       1228       1094      -1.06       0.00       0.00      0.000
4:56am            202          5          5         40         84       72.8       63.3      29.23       63.3        644       1228       1094      -1.04       0.00       0.00      0.000
4:57am            211          4          6         40         85       72.8       63.3      29.23       63.3        642       1145       1092      -1.02       0.00       0.00      0.000
4:58am            225          1          6         40         85       72.8       63.3      29.23       63.3        644       1145       1094      -1.01       0.00       0.00      0.000
4:59am            186          6          8         40         85       72.8       63.2      29.23       63.2        643       1144       1086      -1.09       0.00       0.00      0.000
5:00am            196          4          9         40         85       72.8       63.2      29.23       63.2        644       1144       1087      -1.07       0.00       0.00      0.000
5:01am            166          3          8         40         85       72.8       63.2      29.23       63.2        643       1144       1086      -1.05       0.00       0.00      0.000
5:02am            203          3          8         40         85       72.8       63.2      29.23       63.2        643       1144       1086      -1.04       0.00       0.00      0.000
5:03am            188          4          8         40         85       72.8       63.2      29.23       63.2        645       1144       1088      -1.02       0.00       0.00      0.000
5:04am            238          3          8         40         85       72.8       63.1      29.23       63.1        643       1144       1080      -1.10       0.00       0.00      0.000
5:05am            214          6          8         40         85       72.8       63.1      29.23       63.1        643       1144       1080      -1.08       0.00       0.00      0.000
5:06am            179          0         11         40         85       73.0       63.1      29.23       63.1        646       1144       1083      -1.07       0.00       0.00      0.000
5:07am            179          1         11         40         85       73.0       63.1      29.23       63.1        646       1144       1084      -1.05       0.00       0.00      0.000
5:08am            168          5         11         40         85       73.0       63.1      29.23       63.1        646       1144       1084      -1.03       0.00       0.00      0.000
5:09am            205          2         11         40         85       73.0       63.1      29.23       63.1        646       1144       1084      -1.01       0.00       0.00      0.000
5:10am            241          3         11         40         85       73.0       63.1      29.23       63.1        647       1144       1085      -1.00       0.00       0.00      0.000
5:11am            184          5          5         40         85       73.0       63.1      29.23       63.1        646       1144       1084      -0.98       0.00       0.00      0.000
5:12am            189          7         12         40         85       73.0       63.0      29.23       62.9        646       1144       1078      -1.06       0.00       0.00      0.000
5:13am            187          6         12         40         85       73.0       63.1      29.23       63.1        647       1144       1085      -0.95       0.00       0.00      0.000
5:14am            178          3         12         40         85       73.0       63.0      29.23       63.0        647       1144       1079      -1.03       0.00       0.00      0.000
5:15am            166          5         12         40         85       73.0       63.1      29.23       63.1        647       1144       1085      -0.91       0.00       0.00      0.000
5:16am            170          3          6         40         85       73.0       63.1      29.23       63.1        647       1144       1085      -0.90       0.00       0.00      0.000
5:17am            174          6          6         40         85       73.0       63.0      29.23       63.0        647       1144       1079      -0.98       0.00       0.00      0.000
5:18am            288          5          8         40         85       73.0       63.1      29.23       63.1        648       1144       1087      -0.87       0.00       0.00      0.000
5:19am            243          3          8         40         85       73.0       63.0      29.23       63.0        648       1144       1080      -0.95       0.00       0.00      0.000
5:20am            195          4          8         40         85       73.0       63.0      29.23       63.0        648       1144       1080      -0.94       0.00       0.00      0.000
5:21am            162          5         10         40         85       73.0       63.0      29.22       63.0        649       1144       1081      -0.92       0.00       0.00      0.000
5:22am            176          7         14         40         85       73.0       63.0      29.22       62.9        649       1144       1081      -0.91       0.00       0.00      0.000
5:23am            193          7         14         40         85       73.0       63.0      29.22       62.9        649       1144       1081      -0.89       0.00       0.00      0.000
5:24am            189          2         14         40         85       73.0       63.0      29.22       63.0        650       1144       1082      -0.88       0.00       0.00      0.000
5:25am            204          8         14         40         85       73.0       63.0      29.22       62.6        650       1144       1082      -0.86       0.00       0.00      0.000
5:26am            144          5         10         40         85       73.0       63.0      29.22       63.0        651       1144       1083      -0.85       0.00       0.00      0.000
5:27am            194          3         10         40         85       73.0       63.0      29.22       63.0        650       1144       1082      -0.83       0.00       0.00      0.000
5:28am            230          6         10         40         85       73.0       63.0      29.22       63.0        650       1144       1082      -0.82       0.00       0.00      0.000
5:29am            177          6         10         40         85       73.0       63.0      29.23       63.0        648       1144       1080      -0.81       0.00       0.00      0.000
5:30am            316          7         10         40         85       73.0       63.0      29.23       62.9        648       1144       1080      -0.79       0.00       0.00      0.000
5:31am            203          5         10         40         85       73.0       63.0      29.23       63.0        648       1144       1080      -0.78       0.00       0.00      0.000
5:32am            200          2         10         40         85       73.0       62.9      29.23       62.9        648       1143       1074      -0.87       0.00       0.00      0.000
5:33am            173          4         10         40         85       73.1       62.9      29.23       62.9        648       1143       1074      -0.85       0.00       0.00      0.000
5:34am            199          7         10         40         85       73.1       62.9      29.23       62.7        648       1143       1074      -0.84       0.00       0.00      0.000
5:35am            195          2         10         40         85       73.1       62.9      29.23       62.9        648       1143       1074      -0.83       0.00       0.00      0.000
5:36am            187          3          8         40         85       73.1       62.9      29.23       62.9        648       1143       1074      -0.81       0.00       0.00      0.000
5:37am            184          5          8         40         85       73.0       62.9      29.22       62.9        649       1143       1075      -0.80       0.00       0.00      0.000
5:38am            190          4          8         40         85       73.0       62.9      29.22       62.9        649       1143       1075      -0.79       0.00       0.00      0.000
5:39am            212          2          8         40         85       73.0       62.9      29.22       62.9        649       1143       1075      -0.77       0.00       0.00      0.000
5:40am            158          9          9         40         85       73.0       62.9      29.22       62.2        649       1143       1075      -0.76       0.00       0.00      0.000
5:41am            216          3         10         40         85       73.0       62.8      29.22       62.8        649       1143       1068      -0.85       0.00       0.00      0.000
5:42am            216          2         10         40         85       73.0       62.8      29.22       62.8        649       1143       1068      -0.83       0.00       0.00      0.000
5:43am            216          2         10         40         85       73.0       62.7      29.23       62.7        648       1142       1061      -0.92       0.00       0.00      0.000
5:44am            172          1         10         40         85       73.0       62.7      29.22       62.7        649       1142       1062      -0.90       0.00       0.00      0.000
5:45am            166          5         10         40         85       73.0       62.7      29.23       62.7        648       1142       1061      -0.89       0.00       0.00      0.000
5:46am            170          5         10         40         86       72.8       62.7      29.23       62.7        648       1061       1061      -0.87       0.00       0.00      0.000
5:47am            288          5         10         40         86       72.8       62.6      29.23       62.6        648       1060       1054      -0.96       0.00       0.00      0.000
5:48am            174          2         10         40         86       72.8       62.6      29.23       62.6        648       1060       1054      -0.94       0.00       0.00      0.000
5:49am            256          5         10         40         86       72.8       62.6      29.23       62.6        648       1060       1054      -0.93       0.00       0.00      0.000
5:50am            247          2         10         40         86       72.8       62.6      29.23       62.6        648       1060       1054      -0.91       0.00       0.00      0.000
5:51am            190          5          5         40         86       72.8       62.5      29.23       62.5        648       1060       1048      -1.00       0.00       0.00      0.000
5:52am            248          4          5         40         86       72.8       62.5      29.23       62.5        648       1060       1048      -0.98       0.00       0.00      0.000
5:53am            221          3          5         40         86       72.8       62.5      29.23       62.5        648       1060       1048      -0.96       0.00       0.00      0.000
5:54am            223          2          5         40         86       72.8       62.5      29.23       62.5        648       1060       1048      -0.95       0.00       0.00      0.000
5:55am            212          2          5         40         86       72.8       62.5      29.23       62.5        647       1060       1046      -0.93       0.00       0.00      0.000
5:56am            237          3          3         40         86       72.8       62.4      29.23       62.4        647       1059       1040      -1.02       0.00       0.00      0.000
5:57am            120          0          8         40         86       72.8       62.4      29.23       62.4        647       1059       1040      -1.00       0.00       0.00      0.000
5:58am            185          8          8         40         86       72.8       62.4      29.23       61.9        647       1059       1040      -0.98       0.00       0.00      0.000
5:59am            172          4          8         40         86       72.8       62.4      29.23       62.4        647       1059       1040      -0.97       0.00       0.00      0.000
6:00am            226          2          8         40         86       72.8       62.4      29.23       62.4        647       1059       1040      -0.95       0.00       0.00      0.000
6:01am            254          7         12         40         86       72.8       62.4      29.23       62.1        646       1059       1039      -0.93       0.00       0.00      0.000
6:02am            286          0         12         40         86       72.8       62.4      29.23       62.4        647       1059       1040      -0.92       0.00       0.00      0.000
6:03am            282          0         12         40         86       72.8       62.4      29.23       62.4        647       1059       1040      -0.90       0.00       0.00      0.000
6:04am            212          2         12         40         86       72.8       62.4      29.23       62.4        648       1059       1041      -0.89       0.00       0.00      0.000
6:05am            179          3         12         40         86       72.8       62.4      29.23       62.4        648       1059       1041      -0.88       0.00       0.00      0.000
6:06am            172          8          8         40         86       72.8       62.4      29.23       61.9        647       1059       1040      -0.86       0.00       0.00      0.000
6:07am            191          6          8         40         86       72.8       62.4      29.23       62.4        647       1059       1040      -0.85       0.00       0.00      0.000
6:08am            184          5         10         40         86       73.0       62.4      29.23       62.4        647       1059       1040      -0.83       0.00       0.00      0.000
6:09am            185          3         10         40         86       73.0       62.4      29.23       62.4        647       1059       1040      -0.82       0.00       0.00      0.000
6:10am            146          3         10         40         86       73.0       62.4      29.23       62.4        647       1059       1040      -0.81       0.00       0.00      0.000
6:11am            188          2          3         40         86       73.0       62.4      29.23       62.4        647       1059       1040      -0.79       0.00       0.00      0.000
6:12am            159          3          6         40         86       73.0       62.4      29.23       62.4        647       1059       1040      -0.78       0.00       0.00      0.000
6:13am            255          6          7         40         86       73.0       62.4      29.23       62.4        646       1059       1039      -0.77       0.00       0.00      0.000
6:14am            178          5          7         40         86       73.0       62.3      29.23       62.3        647       1059       1033      -0.85       0.00       0.00      0.000
6:15am            202          4          7         40         86       73.0       62.4      29.23       62.4        647       1059       1040      -0.74       0.00       0.00      0.000
6:16am            158          2          6         40         86       73.0       62.3      29.23       62.3        647       1059       1033      -0.83       0.00       0.00      0.000
6:17am            230          5          6         40         86       73.0       62.4      29.23       62.4        647       1059       1040      -0.72       0.00       0.00      0.000
6:18am            193          1          8         40         86       73.0       62.4      29.23       62.4        647       1059       1040      -0.70       0.00       0.00      0.000
6:19am            179          4          8         40         86       73.0       62.4      29.23       62.4        648       1059       1041      -0.69       0.00       0.00      0.000
6:20am            280          4         10         40         86       73.0       62.4      29.23       62.4        647       1059       1040      -0.68       0.00       0.00      0.000
6:21am            168          2          4         40         86       73.0       62.3      29.23       62.3        648       1059       1035      -0.77       0.00       0.00      0.000
6:22am            243          4          9         40         86       73.0       62.4      29.23       62.4        648       1059       1041      -0.66       0.00       0.00      0.000
6:23am            300          2          9         40         86       73.0       62.4      29.23       62.4        648       1059       1041      -0.64       0.00       0.00      0.000
6:24am            180          5          9         40         86       73.0       62.3      29.23       62.3        648       1059       1035      -0.73       0.00       0.00      0.000
6:25am            195          2          9         40         86       73.0       62.3      29.23       62.3        647       1059       1033      -0.72       0.00       0.00      0.000
6:26am            224          8          8         40         86       73.0       62.3      29.23       61.7        647       1059       1033      -0.71       0.00       0.00      0.000
6:27am            166          6          8         40         86       73.0       62.3      29.23       62.3        647       1059       1033      -0.70       0.00       0.00      0.000
6:28am            211          2          8         40         86       73.0       62.3      29.23       62.3        648       1059       1035      -0.69       0.00       0.00      0.000
6:29am            202          4          8         41         86       73.0       62.3      29.23       62.3        648       1059       1035      -0.67       0.00       0.00      0.000
6:30am            205          3          8         40         86       73.0       62.3      29.23       62.3        648       1059       1035      -0.66       0.00       0.00      0.000
6:31am            163          5          5         41         86       73.0       62.3      29.23       62.3        648       1059       1035      -0.65       0.00       0.00      0.000
6:32am            232          2          5         40         86       73.0       62.3      29.23       62.3        648       1059       1035      -0.64       0.00       0.00      0.000
6:33am            193          5          6         40         86       73.0       62.3      29.23       62.3        648       1059       1035      -0.63       0.00       0.00      0.000
6:34am            264          2          6         40         86       73.0       62.3      29.23       62.3        647       1059       1033      -0.62       0.00       0.00      0.000
6:35am            174          3          6         40         87       73.0       62.3      29.23       62.3        647        978       1033      -0.61       0.00       0.00      0.000
6:36am            210          6          6         40         87       73.0       62.3      29.23       62.3        647        978       1033      -0.60       0.00       0.00      0.000
6:37am            169          1          7         40         87       73.0       62.3      29.23       62.3        647        978       1033      -0.59       0.00       0.00      0.000
6:38am            162          4          8         40         87       73.0       62.3      29.23       62.3        647        978       1033      -0.58       0.00       0.00      0.000
6:39am            202          2          8         40         87       73.0       62.3      29.23       62.3        648        978       1035      -0.57       0.00       0.00      0.000
6:40am            208          2          8         41         87       73.0       62.4      29.23       62.4        647        979       1040      -0.46       0.00       0.00      0.000
6:41am            247          1          3         40         87       73.0       62.4      29.23       62.4        647        979       1040      -0.45       0.00       0.00      0.000
6:42am            213          0          3         40         87       73.0       62.3      29.23       62.3        647        978       1033      -0.55       0.00       0.00      0.000
6:43am            327          2         10         40         87       73.0       62.4      29.23       62.4        647        979       1040      -0.44       0.00       0.00      0.000
6:44am            164          1         10         40         87       73.0       62.4      29.23       62.4        647        979       1040      -0.43       0.00       0.00      0.000
6:45am            164          1         10         40         87       73.0       62.4      29.23       62.4        647        979       1040      -0.42       0.00       0.00      0.000
6:46am            197          7          8         40         87       73.1       62.4      29.23       62.1        646        979       1039      -0.42       0.00       0.00      0.000
6:47am            173          3          8         40         87       73.1       62.4      29.23       62.4        647        979       1040      -0.41       0.00       0.00      0.000
6:48am            154          3          9         40         87       73.1       62.4      29.23       62.4        647        979       1040      -0.40       0.00       0.00      0.000
6:49am            157          7          9         40         86       73.1       62.5      29.23       62.3        647       1060       1046      -0.30       0.00       0.00      0.000
6:50am            226          8         10         40         86       73.1       62.5      29.23       62.0        647       1060       1046      -0.29       0.00       0.00      0.000
6:51am            172          5          8         40         86       73.1       62.5      29.23       62.5        647       1060       1046      -0.29       0.00       0.00      0.000
6:52am            211          1          8         40         86       73.1       62.5      29.23       62.5        647       1060       1046      -0.28       0.00       0.00      0.000
6:53am            220          0          8         40         86       73.1       62.6      29.23       62.6        647       1060       1053      -0.18       0.00       0.00      0.000
6:54am            203          3          8         40         86       73.1       62.6      29.23       62.6        647       1060       1053      -0.17       0.00       0.00      0.000
6:55am            213          5          8         40         86       73.1       62.6      29.23       62.6        647       1060       1053      -0.17       0.00       0.00      0.000
6:56am            231          3          9         40         86       73.1       62.6      29.23       62.6        647       1060       1053      -0.17       0.00       0.00      0.000
6:57am            201          6          9         40         87       73.1       62.6      29.23       62.6        646        979       1051      -0.17       0.00       0.00      0.000
6:58am            202          4          9         40         86       73.1       62.6      29.23       62.6        646       1060       1052      -0.16       0.00       0.00      0.000
6:59am            190          9         11         40         86       73.1       62.7      29.23       62.0        646       1061       1057      -0.06       0.00       0.00      0.000
7:00am            202          5         11         40         86       73.1       62.7      29.23       62.7        646       1061       1057      -0.06       0.00       0.00      0.000
7:01am            344          1          7         41         86       73.1       62.7      29.23       62.7        646       1061       1057      -0.06       0.00       0.00      0.000
7:02am            190          3          8         40         86       73.1       62.7      29.23       62.7        646       1061       1057      -0.06       0.00       0.00      0.000
7:03am            194          1          8         41         86       73.1       62.7      29.23       62.7        646       1061       1057      -0.06       0.00       0.00      0.000
7:04am            251          4          8         40         86       73.1       62.7      29.23       62.7        643       1061       1054      -0.06       0.00       0.00      0.000
7:05am            232          3          8         40         86       73.1       62.8      29.23       62.8        644       1061       1061       0.04       0.00       0.00      0.000
7:06am            254          5          5         40         86       73.1       62.8      29.23       62.8        645       1061       1063       0.04       0.00       0.00      0.000
7:07am            233          1          6         40         86       73.1       62.8      29.23       62.8        643       1061       1060       0.04       0.00       0.00      0.000
7:08am            218          3          7         40         86       73.0       62.8      29.23       62.8        646       1061       1064       0.04       0.00       0.00      0.000
7:09am            147          4          7         41         86       73.0       62.8      29.23       62.8        645       1061       1063       0.04       0.00       0.00      0.000
7:10am            195          2          7         40         86       73.0       62.8      29.23       62.8        642       1061       1059       0.04       0.00       0.00      0.000
7:11am            241          4          4         40         86       73.0       62.8      29.23       62.8        642       1061       1059       0.04       0.00       0.00      0.000
7:12am            225          4          4         40         86       73.0       62.8      29.23       62.8        641       1061       1058       0.04       0.00       0.00      0.000
7:13am            179          3          4         40         86       73.0       62.8      29.23       62.8        642       1061       1059       0.04       0.00       0.00      0.000
7:14am            171          3          4         41         86       73.0       62.9      29.23       62.9        642       1061       1066       0.14       0.00       0.00      0.000
7:15am            252          4          8         40         86       73.0       62.9      29.24       62.9        639       1061       1062       0.13       0.00       0.00      0.000
7:16am            180          2          5         40         86       73.0       62.8      29.24       62.8        639       1061       1056       0.03       0.00       0.00      0.000
7:17am            186          3          5         40         86       73.0       62.8      29.24       62.8        636       1061       1052       0.03       0.00       0.00      0.000
7:18am            229          4          6         40         86       73.0       62.9      29.24       62.9        636       1061       1059       0.13       0.00       0.00      0.000
7:19am            243          6          6         40         86       73.0       62.9      29.24       62.9        636       1061       1059       0.13       0.00       0.00      0.000
7:20am            210          3          6         40         86       73.0       62.9      29.24       62.9        637       1061       1060       0.13       0.00       0.00      0.000
7:21am            207          2          7         40         86       73.0       62.9      29.24       62.9        637       1061       1060       0.12       0.00       0.00      0.000
7:22am            185          1          7         40         86       73.0       62.9      29.24       62.9        638       1061       1061       0.12       0.00       0.00      0.000
7:23am            180          3          7         40         86       73.0       62.9      29.24       62.9        638       1061       1061       0.12       0.00       0.00      0.000
7:24am            180          2          7         40         86       73.0       62.9      29.24       62.9        639       1061       1062       0.12       0.00       0.00      0.000
7:25am            231          5          7         40         86       73.0       62.9      29.24       62.9        636       1061       1059       0.12       0.00       0.00      0.000
7:26am            177          5          6         40         86       73.0       62.9      29.24       62.9        638       1061       1061       0.11       0.00       0.00      0.000
7:27am            176          3          6         40         86       73.0       63.0      29.24       63.0        638       1062       1068       0.21       0.00       0.00      0.000
7:28am            222          1          6         40         86       73.0       63.0      29.24       63.0        638       1062       1068       0.21       0.00       0.00      0.000
7:29am            152          6         11         40         86       73.0       63.0      29.24       63.0        636       1062       1065       0.21       0.00       0.00      0.000
7:30am            232          2         11         40         86       73.0       62.9      29.24       62.9        636       1061       1059       0.10       0.00       0.00      0.000
7:31am            193          0          3         41         86       73.0       63.0      29.24       63.0        636       1062       1065       0.20       0.00       0.00      0.000
7:32am            188          0          3         40         86       73.0       63.0      29.24       63.0        635       1062       1064       0.20       0.00       0.00      0.000
7:33am            210          0          3         40         86       73.0       63.0      29.24       63.0        635       1062       1064       0.20       0.00       0.00      0.000
7:34am            204          3          3         40         86       73.0       63.0      29.24       63.0        635       1062       1064       0.19       0.00       0.00      0.000
7:35am            211          3          4         40         86       73.0       63.0      29.24       63.0        635       1062       1064       0.19       0.00       0.00      0.000
7:36am            262          3          7         40         86       73.0       63.0      29.24       63.0        637       1062       1066       0.19       0.00       0.00      0.000
7:37am            222          4          7         40         86       73.0       63.0      29.24       63.0        637       1062       1066       0.18       0.00       0.00      0.000
7:38am            186          6          8         41         86       73.0       63.0      29.24       63.0        637       1062       1066       0.18       0.00       0.00      0.000
7:39am            222          2          8         40         86       73.0       63.1      29.24       63.1        637       1062       1073       0.28       0.00       0.00      0.000
7:40am            219          2          8         40         86       73.0       63.1      29.24       63.1        636       1062       1072       0.27       0.00       0.00      0.000
7:41am            218          9          9         40         86       73.0       63.2      29.24       62.6        635       1063       1077       0.37       0.00       0.00      0.000
7:42am            229          3          9         40         86       73.0       63.2      29.24       63.2        634       1063       1076       0.36       0.00       0.00      0.000
7:43am            166          6         10         40         86       73.0       63.2      29.24       63.2        634       1063       1076       0.35       0.00       0.00      0.000
7:44am            172          4         12         40         86       73.0       63.2      29.24       63.2        634       1063       1076       0.35       0.00       0.00      0.000
7:45am            176          1         12         40         86       73.0       63.2      29.24       63.2        635       1063       1077       0.34       0.00       0.00      0.000
7:46am            243          4          4         41         86       73.0       63.2      29.24       63.2        635       1063       1077       0.34       0.00       0.00      0.000
7:47am            199          6          7         41         86       73.0       63.3      29.24       63.3        635       1063       1084       0.43       0.00       0.00      0.000
7:48am            170          3          7         40         86       73.0       63.3      29.24       63.3        637       1063       1086       0.42       0.00       0.00      0.000
7:49am            181          6          7         40         86       73.1       63.4      29.24       63.4        638       1064       1093       0.51       0.00       0.00      0.000
7:50am            212          4          7         40         86       73.1       63.3      29.24       63.3        636       1063       1085       0.41       0.00       0.00      0.000
7:51am            265          2          5         40         86       73.1       63.4      29.24       63.4        634       1064       1089       0.50       0.00       0.00      0.000
7:52am            208          3          5         40         86       73.1       63.4      29.24       63.4        634       1064       1089       0.49       0.00       0.00      0.000
7:53am            232          2          5         40         86       73.1       63.3      29.24       63.3        631       1063       1078       0.39       0.00       0.00      0.000
7:54am            193          4          5         40         86       73.1       63.4      29.24       63.4        631       1064       1084       0.48       0.00       0.00      0.000
7:55am            161          3          6         40         86       73.1       63.4      29.25       63.4        627       1064       1080       0.47       0.00       0.00      0.000
7:56am            171          4          5         40         86       73.1       63.4      29.25       63.4        627       1064       1080       0.46       0.00       0.00      0.000
7:57am            212          3          5         40         86       73.1       63.4      29.25       63.4        628       1064       1081       0.45       0.00       0.00      0.000
7:58am            224          6          6         40         86       73.1       63.3      29.25       63.3        627       1063       1073       0.35       0.00       0.00      0.000
7:59am            185          4          6         40         86       73.1       63.3      29.25       63.3        626       1063       1072       0.34       0.00       0.00      0.000
8:00am            158          4          8         40         86       73.1       63.3      29.25       63.3        627       1063       1073       0.33       0.00       0.00      0.000
8:01am            176          3          6         41         86       73.1       63.3      29.25       63.3        628       1063       1074       0.33       0.00       0.00      0.000
8:02am            239          3          6         40         86       73.1       63.3      29.25       63.3        627       1063       1073       0.32       0.00       0.00      0.000
8:03am            272          6          9         40         86       73.1       63.3      29.25       63.3        623       1063       1069       0.32       0.00       0.00      0.000
8:04am            159          4          9         40         86       73.1       63.2      29.25       63.2        622       1063       1061       0.21       0.00       0.00      0.000
8:05am            197          5          9         42         86       73.1       63.3      29.25       63.3        626       1063       1072       0.31       0.00       0.00      0.000
8:06am            264          3          5         40         86       73.1       63.2      29.25       63.2        625       1063       1065       0.21       0.00       0.00      0.000
8:07am            168          7          7         40         86       73.1       63.2      29.25       63.1        624       1063       1063       0.20       0.00       0.00      0.000
8:08am            158          5          9         40         86       73.1       63.2      29.25       63.2        626       1063       1066       0.20       0.00       0.00      0.000
8:09am            203          3          9         40         86       73.1       63.2      29.25       63.2        626       1063       1066       0.20       0.00       0.00      0.000
8:10am            206          4          9         40         86       73.1       63.2      29.25       63.2        625       1063       1065       0.19       0.00       0.00      0.000
8:11am            232          1          6         40         86       73.1       63.2      29.25       63.2        626       1063       1066       0.19       0.00       0.00      0.000
8:12am            215          5          6         40         86       73.1       63.2      29.25       63.2        625       1063       1065       0.19       0.00       0.00      0.000
8:13am            214          4          9         40         86       73.1       63.2      29.25       63.2        627       1063       1067       0.18       0.00       0.00      0.000
8:14am            196          2          9         40         86       73.1       63.2      29.25       63.2        625       1063       1065       0.18       0.00       0.00      0.000
8:15am            187          3          9         40         86       73.1       63.2      29.25       63.2        627       1063       1067       0.18       0.00       0.00      0.000
8:16am            181          6          6         40         86       73.1       63.2      29.25       63.2        625       1063       1065       0.17       0.00       0.00      0.000
8:17am            174          6         11         40         86       73.1       63.2      29.25       63.2        623       1063       1062       0.17       0.00       0.00      0.000
8:18am            253          2         12         40         86       73.1       63.1      29.25       63.1        628       1062       1061       0.07       0.00       0.00      0.000
8:19am            253          2         12         41         86       73.1       63.1      29.25       63.1        627       1062       1060       0.07       0.00       0.00      0.000
8:20am            159          4         12         41         86       73.1       63.1      29.25       63.1        626       1062       1059       0.07       0.00       0.00      0.000
8:21am            168          2          4         40         86       73.1       63.1      29.25       63.1        626       1062       1059       0.07       0.00       0.00      0.000
8:22am            168          0          4         40         87       73.1       63.1      29.25       63.1        625        982       1058       0.06       0.00       0.00      0.000
8:23am            253          3          4         40         87       73.1       63.1      29.25       63.1        624        982       1057       0.06       0.00       0.00      0.000
8:24am            158          3          7         40         87       73.1       63.1      29.25       63.1        625        982       1058       0.06       0.00       0.00      0.000
8:25am            283          2          7         40         87       73.1       63.1      29.25       63.1        627        982       1060       0.06       0.00       0.00      0.000
8:26am            158          3          3         41         87       73.3       63.0      29.25       63.0        625        981       1052      -0.04       0.00       0.00      0.000
8:27am            237          6          6         41         87       73.3       63.0      29.25       63.0        625        981       1052      -0.04       0.00       0.00      0.000
8:28am            202          2          6         40         87       73.3       63.0      29.25       63.0        625        981       1052      -0.04       0.00       0.00      0.000
8:29am            162          6          7         41         88       73.3       62.9      29.25       62.9        626        901       1046      -0.14       0.00       0.00      0.000

Data provided from:  Mark Hofmann's Bel Air, MD Weather Station